EW3651 Weather Reports


Display with metric or nautical units.
time (UTC)temp
F
wind
direction
speed
MPH
gust
MPH
rain 1hr
in
rain 24hr
in
rain mn
in
humidity
%
barometer
mb
20260508234004 80 252 2.0 6.0 0.00 0.00 0.00 42 1016.3
20260508233525 80 289 2.0 8.0 0.00 0.00 0.00 41 1016.3
20260508233004 80 302 3.0 8.0 0.00 0.00 0.00 41 1016.3
20260508232504 80 296 3.0 7.0 0.00 0.00 0.00 42 1016.4
20260508232025 80 293 2.0 7.0 0.00 0.00 0.00 41 1016.4
20260508231504 80 279 1.0 3.0 0.00 0.00 0.00 41 1016.4
20260508231004 80 320 2.0 9.0 0.00 0.00 0.00 40 1016.5
20260508230504 80 316 3.0 9.0 0.00 0.00 0.00 42 1016.5
20260508230004 80 298 3.0 7.0 0.00 0.00 0.00 38 1016.6
20260508225504 81 299 2.0 6.0 0.00 0.00 0.00 41 1016.6
20260508225004 81 318 2.0 7.0 0.00 0.00 0.00 42 1016.6
20260508224504 81 311 2.0 7.0 0.00 0.00 0.00 40 1016.8
20260508224025 80 281 1.0 6.0 0.00 0.00 0.00 38 1016.9
20260508223504 80 226 1.0 6.0 0.00 0.00 0.00 41 1016.9
20260508223025 80 253 2.0 6.0 0.00 0.00 0.00 39 1017.0
20260508222504 79 284 2.0 6.0 0.00 0.00 0.00 42 1017.0
20260508222025 79 277 2.0 6.0 0.00 0.00 0.00 40 1017.1
20260508221504 79 313 2.0 8.0 0.00 0.00 0.00 42 1017.2
20260508221025 79 327 2.0 8.0 0.00 0.00 0.00 50 1017.2
20260508220504 78 305 2.0 7.0 0.00 0.00 0.00 45 1017.3
20260508220004 78 294 3.0 7.0 0.00 0.00 0.00 41 1017.4
20260508215504 78 281 2.0 7.0 0.00 0.00 0.00 43 1017.4
20260508215004 79 279 1.0 7.0 0.00 0.00 0.00 44 1017.4
20260508214504 79 298 1.0 4.0 0.00 0.00 0.00 45 1017.5
20260508214004 78 306 2.0 5.0 0.00 0.00 0.00 45 1017.5
20260508213504 78 310 2.0 7.0 0.00 0.00 0.00 47 1017.6
20260508213004 78 278 2.0 7.0 0.00 0.00 0.00 45 1017.7
20260508212504 78 254 2.0 7.0 0.00 0.00 0.00 50 1017.7
20260508212004 78 286 2.0 7.0 0.00 0.00 0.00 48 1017.7
20260508211504 78 303 2.0 8.0 0.00 0.00 0.00 51 1017.7
20260508211025 77 304 3.0 8.0 0.00 0.00 0.00 49 1017.7
20260508210504 77 288 3.0 9.0 0.00 0.00 0.00 51 1017.8
20260508210004 78 277 2.0 9.0 0.00 0.00 0.00 51 1017.7
20260508205504 78 261 2.0 7.0 0.00 0.00 0.00 47 1017.7
20260508205025 77 271 2.0 7.0 0.00 0.00 0.00 46 1017.7
20260508204504 77 285 3.0 9.0 0.00 0.00 0.00 42 1017.7
20260508204025 77 290 3.0 9.0 0.00 0.00 0.00 47 1017.7
20260508203504 78 305 2.0 5.0 0.00 0.00 0.00 47 1017.7
20260508203004 77 300 2.0 8.0 0.00 0.00 0.00 47 1017.7
20260508202004 77 304 3.0 9.0 0.00 0.00 0.00 47 1017.9
20260508201504 77 303 3.0 7.0 0.00 0.00 0.00 50 1017.9
20260508201004 77 281 3.0 9.0 0.00 0.00 0.00 47 1018.0
20260508200504 77 277 2.0 9.0 0.00 0.00 0.00 44 1017.9
20260508200004 77 336 2.0 9.0 0.00 0.00 0.00 49 1017.8
20260508195504 77 333 3.0 9.0 0.00 0.00 0.00 48 1017.9
20260508195004 76 313 3.0 8.0 0.00 0.00 0.00 51 1017.9
20260508194525 76 315 3.0 8.0 0.00 0.00 0.00 49 1017.9
20260508194004 76 293 3.0 8.0 0.00 0.00 0.00 50 1017.9
20260508193504 75 277 3.0 9.0 0.00 0.00 0.00 47 1017.9
20260508193025 76 283 3.0 9.0 0.00 0.00 0.00 47 1018.0
20260508192525 76 288 3.0 8.0 0.00 0.00 0.00 44 1018.0
20260508192004 76 304 3.0 7.0 0.00 0.00 0.00 48 1018.0
20260508191504 76 302 4.0 9.0 0.00 0.00 0.00 46 1018.0
20260508191003 76 296 4.0 9.0 0.00 0.00 0.00 43 1018.1
20260508190504 77 299 2.0 8.0 0.00 0.00 0.00 42 1018.0
20260508190004 77 275 1.0 4.0 0.00 0.00 0.00 46 1018.0
20260508185504 76 268 1.0 5.0 0.00 0.00 0.00 47 1018.1
20260508185004 76 275 2.0 5.0 0.00 0.00 0.00 46 1018.1
20260508184504 76 272 2.0 9.0 0.00 0.00 0.00 48 1018.1
20260508184004 76 275 3.0 9.0 0.00 0.00 0.00 46 1018.2
20260508183503 76 300 2.0 6.0 0.00 0.00 0.00 47 1018.2
20260508183004 76 318 1.0 6.0 0.00 0.00 0.00 52 1018.1
20260508182504 75 245 1.0 3.0 0.00 0.00 0.00 54 1018.1
20260508182004 75 263 2.0 5.0 0.00 0.00 0.00 49 1018.1
20260508181504 74 289 2.0 5.0 0.00 0.00 0.00 49 1018.2
20260508181003 74 277 1.0 3.0 0.00 0.00 0.00 51 1018.2
20260508180504 74 282 2.0 4.0 0.00 0.00 0.00 49 1018.2
20260508180004 74 282 1.0 4.0 0.00 0.00 0.00 49 1018.1
20260508175504 74 293 1.0 4.0 0.00 0.00 0.00 50 1018.2
20260508175004 73 271 1.0 4.0 0.00 0.00 0.00 52 1018.2
20260508174504 72 233 1.0 4.0 0.00 0.00 0.00 50 1018.2
20260508174004 72 250 0.0 3.0 0.00 0.00 0.00 56 1018.2
20260508173503 71 290 0.0 2.0 0.00 0.00 0.00 59 1018.2
20260508173004 70 306 1.0 4.0 0.00 0.00 0.00 53 1018.2
20260508172503 70 290 2.0 4.0 0.00 0.00 0.00 53 1018.3
20260508172004 70 272 1.0 4.0 0.00 0.00 0.00 56 1018.4
20260508171504 69 278 1.0 5.0 0.00 0.00 0.00 53 1018.4
20260508171004 69 306 1.0 5.0 0.00 0.00 0.00 59 1018.4
20260508170525 69 326 1.0 4.0 0.00 0.00 0.00 61 1018.4
20260508170004 69 294 1.0 4.0 0.00 0.00 0.00 59 1018.4
20260508165504 68 265 1.0 4.0 0.00 0.00 0.00 59 1018.4
20260508165004 68 292 1.0 3.0 0.00 0.00 0.00 60 1018.4
20260508164503 67 295 1.0 3.0 0.00 0.00 0.00 56 1018.3
20260508164004 66 300 0.0 3.0 0.00 0.00 0.00 60 1018.2
20260508163504 66 0 0.0 0.0 0.00 0.00 0.00 64 1018.2
20260508163004 64 0 0.0 0.0 0.00 0.00 0.00 68 1018.2
20260508162504 63 0 0.0 0.0 0.00 0.00 0.00 68 1018.2
20260508162004 62 0 0.0 0.0 0.00 0.00 0.00 76 1018.2
20260508161504 61 0 0.0 0.0 0.00 0.00 0.00 79 1018.3
20260508161003 60 0 0.0 0.0 0.00 0.00 0.00 78 1018.3
20260508160504 59 0 0.0 0.0 0.00 0.00 0.00 82 1018.4
20260508160004 58 0 0.0 0.0 0.00 0.00 0.00 82 1018.3
20260508155504 57 0 0.0 0.0 0.00 0.00 0.00 82 1018.4
20260508155003 56 0 0.0 0.0 0.00 0.00 0.00 86 1018.3
20260508154524 55 0 0.0 0.0 0.00 0.00 0.00 87 1018.4
20260508154025 54 0 0.0 0.0 0.00 0.00 0.00 88 1018.4
20260508153524 53 0 0.0 0.0 0.00 0.00 0.00 89 1018.4
20260508153004 52 0 0.0 0.0 0.00 0.00 0.00 88 1018.4
20260508152525 52 0 0.0 0.0 0.00 0.00 0.00 90 1018.3
20260508152004 51 0 0.0 0.0 0.00 0.00 0.00 90 1018.2
20260508151503 50 0 0.0 0.0 0.00 0.00 0.00 88 1018.3
20260508151004 50 0 0.0 0.0 0.00 0.00 0.00 88 1018.3
20260508150504 49 0 0.0 0.0 0.00 0.00 0.00 90 1018.2
20260508150004 49 0 0.0 0.0 0.00 0.00 0.00 89 1018.2
20260508145504 48 0 0.0 0.0 0.00 0.00 0.00 87 1018.2
20260508145025 48 0 0.0 0.0 0.00 0.00 0.00 86 1018.2
20260508144503 48 0 0.0 0.0 0.00 0.00 0.00 88 1018.2
20260508144003 48 0 0.0 0.0 0.00 0.00 0.00 88 1018.2
20260508143525 48 0 0.0 0.0 0.00 0.00 0.00 87 1018.1
20260508143025 48 0 0.0 0.0 0.00 0.00 0.00 88 1018.0
20260508142504 47 0 0.0 0.0 0.00 0.00 0.00 87 1018.0
20260508142004 47 0 0.0 0.0 0.00 0.00 0.00 87 1017.9
20260508141525 47 0 0.0 0.0 0.00 0.00 0.00 88 1017.9
20260508141003 47 0 0.0 0.0 0.00 0.00 0.00 87 1017.8
20260508140525 47 0 0.0 0.0 0.00 0.00 0.00 88 1017.8
20260508140004 47 0 0.0 0.0 0.00 0.00 0.00 88 1017.8
20260508135503 47 0 0.0 0.0 0.00 0.00 0.00 88 1017.8
20260508135024 47 0 0.0 0.0 0.00 0.00 0.00 87 1017.9
20260508134503 47 0 0.0 0.0 0.00 0.00 0.00 88 1017.8
20260508134004 47 0 0.0 0.0 0.00 0.00 0.00 88 1017.8
20260508133503 47 0 0.0 0.0 0.00 0.00 0.00 88 1017.7
20260508133003 47 0 0.0 0.0 0.00 0.00 0.00 87 1017.6
20260508132504 47 0 0.0 0.0 0.00 0.00 0.00 87 1017.7
20260508132003 47 0 0.0 0.0 0.00 0.00 0.00 87 1017.6
20260508131504 47 0 0.0 0.0 0.00 0.00 0.00 87 1017.6
20260508131003 47 0 0.0 0.0 0.00 0.00 0.00 87 1017.6
20260508130504 47 0 0.0 0.0 0.00 0.00 0.00 86 1017.5
20260508130004 47 0 0.0 0.0 0.00 0.00 0.00 87 1017.4
20260508125504 47 92 0.0 2.0 0.00 0.00 0.00 87 1017.4
20260508125003 47 92 0.0 2.0 0.00 0.00 0.00 87 1017.4
20260508124503 47 0 0.0 0.0 0.00 0.00 0.00 86 1017.4
20260508124004 47 0 0.0 0.0 0.00 0.00 0.00 87 1017.4
20260508123503 48 0 0.0 0.0 0.00 0.00 0.00 87 1017.4
20260508123003 48 0 0.0 0.0 0.00 0.00 0.00 87 1017.4
20260508122503 48 0 0.0 0.0 0.00 0.00 0.00 87 1017.3
20260508122003 48 0 0.0 0.0 0.00 0.00 0.00 87 1017.4
20260508121503 48 0 0.0 0.0 0.00 0.00 0.00 87 1017.4
20260508121003 48 0 0.0 0.0 0.00 0.00 0.00 88 1017.4
20260508120503 48 0 0.0 0.0 0.00 0.00 0.00 88 1017.3
20260508120004 48 0 0.0 0.0 0.00 0.00 0.00 88 1017.3
20260508115503 48 0 0.0 0.0 0.00 0.00 0.00 89 1017.4
20260508115003 48 92 0.0 2.0 0.00 0.00 0.00 89 1017.4
20260508114503 49 92 0.0 2.0 0.00 0.00 0.00 89 1017.4
20260508114024 49 92 0.0 1.0 0.00 0.00 0.00 89 1017.4
20260508113503 49 0 0.0 0.0 0.00 0.00 0.00 87 1017.4
20260508113004 49 0 0.0 0.0 0.00 0.00 0.00 88 1017.4
20260508112503 49 0 0.0 0.0 0.00 0.00 0.00 88 1017.3
20260508112003 49 0 0.0 0.0 0.00 0.00 0.00 88 1017.4
20260508111503 49 67 0.0 2.0 0.00 0.00 0.00 89 1017.3
20260508111003 49 49 0.0 2.0 0.00 0.00 0.00 89 1017.3
20260508110524 49 314 0.0 1.0 0.00 0.00 0.00 89 1017.3
20260508110003 49 300 0.0 1.0 0.00 0.00 0.00 88 1017.3
20260508105503 49 300 0.0 1.0 0.00 0.00 0.00 89 1017.3
20260508105003 50 330 0.0 1.0 0.00 0.00 0.00 89 1017.3
20260508104503 50 330 0.0 1.0 0.00 0.00 0.00 89 1017.4
20260508104003 50 303 0.0 1.0 0.00 0.00 0.00 89 1017.4
20260508103503 50 303 0.0 1.0 0.00 0.00 0.00 89 1017.4
20260508103003 50 0 0.0 0.0 0.00 0.00 0.00 88 1017.4
20260508102524 50 0 0.0 0.0 0.00 0.00 0.00 88 1017.3
20260508102003 50 0 0.0 0.0 0.00 0.00 0.00 89 1017.3
20260508101503 50 0 0.0 0.0 0.00 0.00 0.00 89 1017.3
20260508101003 51 0 0.0 0.0 0.00 0.00 0.00 90 1017.4
20260508100504 51 0 0.0 0.0 0.00 0.00 0.00 90 1017.4
20260508100004 51 0 0.0 0.0 0.00 0.00 0.00 90 1017.4
20260508095503 51 0 0.0 0.0 0.00 0.00 0.00 90 1017.4
20260508095003 51 303 0.0 1.0 0.00 0.00 0.00 90 1017.4
20260508094503 51 303 0.0 1.0 0.00 0.00 0.00 90 1017.3
20260508094003 52 0 0.0 0.0 0.00 0.00 0.00 91 1017.4
20260508093503 52 0 0.0 0.0 0.00 0.00 0.00 91 1017.4
20260508093024 52 0 0.0 0.0 0.00 0.00 0.00 91 1017.5
20260508092503 52 0 0.0 0.0 0.00 0.00 0.00 91 1017.5
20260508092003 52 0 0.0 0.0 0.00 0.00 0.00 91 1017.4
20260508091503 52 0 0.0 0.0 0.00 0.00 0.00 90 1017.4
20260508091003 52 0 0.0 0.0 0.00 0.00 0.00 91 1017.4
20260508090503 52 334 0.0 1.0 0.00 0.00 0.00 91 1017.4
20260508090024 52 325 0.0 1.0 0.00 0.00 0.00 91 1017.4
20260508085503 53 320 0.0 1.0 0.00 0.00 0.00 91 1017.3
20260508085003 53 0 0.0 0.0 0.00 0.00 0.00 91 1017.3
20260508084503 53 0 0.0 0.0 0.00 0.00 0.00 90 1017.3
20260508084003 53 359 0.0 1.0 0.00 0.00 0.00 90 1017.4
20260508083503 53 349 0.0 1.0 0.00 0.00 0.00 90 1017.4
20260508083005 53 348 0.0 1.0 0.00 0.00 0.00 90 1017.4
20260508082505 53 339 0.0 1.0 0.00 0.00 0.00 90 1017.4
20260508082026 54 344 0.0 1.0 0.00 0.00 0.00 91 1017.5
20260508081505 54 338 0.0 1.0 0.00 0.00 0.00 91 1017.5
20260508081004 54 326 0.0 1.0 0.00 0.00 0.00 91 1017.5
20260508080505 54 311 0.0 1.0 0.00 0.00 0.00 91 1017.6
20260508080005 54 359 0.0 1.0 0.00 0.00 0.00 91 1017.6
20260508075505 54 359 0.0 1.0 0.00 0.00 0.00 91 1017.5
20260508075005 54 359 0.0 1.0 0.00 0.00 0.00 91 1017.5
20260508074504 54 359 0.0 2.0 0.00 0.00 0.00 91 1017.5
20260508074005 55 359 0.0 2.0 0.00 0.00 0.00 91 1017.4
20260508073504 55 359 0.0 2.0 0.00 0.00 0.00 91 1017.5
20260508073004 55 0 0.0 0.0 0.00 0.00 0.00 91 1017.5
20260508072505 55 0 0.0 0.0 0.00 0.00 0.00 91 1017.6
20260508072025 55 0 0.0 0.0 0.00 0.00 0.00 91 1017.5
20260508071505 55 0 0.0 0.0 0.00 0.00 0.00 91 1017.6
20260508071005 55 0 0.0 0.0 0.00 0.00 0.00 91 1017.5
20260508070526 55 0 0.0 0.0 0.00 0.00 0.00 91 1017.4
20260508070005 55 0 0.0 0.0 0.00 0.00 0.00 90 1017.4
20260508065504 56 0 0.0 0.0 0.00 0.00 0.00 90 1017.4
20260508065005 56 0 0.0 0.0 0.00 0.00 0.00 90 1017.4
20260508064504 56 0 0.0 0.0 0.00 0.00 0.00 90 1017.4
20260508064005 56 0 0.0 0.0 0.00 0.00 0.00 90 1017.4
20260508063526 56 0 0.0 0.0 0.00 0.00 0.00 90 1017.3
20260508063004 56 0 0.0 0.0 0.00 0.00 0.00 89 1017.4
20260508062505 56 0 0.0 0.0 0.00 0.00 0.00 89 1017.4
20260508062005 57 0 0.0 0.0 0.00 0.00 0.00 89 1017.4
20260508061526 57 359 0.0 2.0 0.00 0.00 0.00 89 1017.4
20260508061005 57 359 0.0 2.0 0.00 0.00 0.00 89 1017.4
20260508060505 57 359 0.0 2.0 0.00 0.00 0.00 89 1017.4
20260508060005 58 359 0.0 1.0 0.00 0.00 0.00 90 1017.4
20260508055504 58 359 0.0 2.0 0.00 0.00 0.00 90 1017.4
20260508055005 58 359 1.0 2.0 0.00 0.00 0.00 90 1017.5
20260508054505 58 359 1.0 2.0 0.00 0.00 0.00 90 1017.6
20260508054004 58 359 1.0 2.0 0.00 0.00 0.00 90 1017.5
20260508053504 58 359 0.0 2.0 0.00 0.00 0.00 90 1017.5
20260508053004 58 359 0.0 1.0 0.00 0.00 0.00 89 1017.5
20260508052505 59 359 0.0 1.0 0.00 0.00 0.00 89 1017.6
20260508052025 59 0 0.0 0.0 0.00 0.00 0.00 89 1017.6
20260508051504 59 0 0.0 0.0 0.00 0.00 0.00 88 1017.6
20260508051025 59 0 0.0 0.0 0.00 0.00 0.00 88 1017.6
20260508050504 60 0 0.0 0.0 0.00 0.00 0.00 88 1017.6
20260508050005 60 0 0.0 0.0 0.00 0.00 0.00 88 1017.6
20260508045504 60 0 0.0 0.0 0.00 0.00 0.00 87 1017.7
20260508045004 60 0 0.0 0.0 0.00 0.00 0.00 87 1017.7
20260508044504 60 0 0.0 0.0 0.00 0.00 0.00 87 1017.7
20260508044004 61 0 0.0 0.0 0.00 0.00 0.00 86 1017.7
20260508043526 61 0 0.0 0.0 0.00 0.00 0.00 86 1017.7
20260508043004 61 0 0.0 0.0 0.00 0.00 0.00 85 1017.6
20260508042504 61 0 0.0 0.0 0.00 0.00 0.00 85 1017.6
20260508042004 62 0 0.0 0.0 0.00 0.00 0.00 85 1017.5
20260508041505 62 359 0.0 1.0 0.00 0.00 0.00 84 1017.5
20260508041005 62 359 0.0 1.0 0.00 0.00 0.00 84 1017.5
20260508040504 63 0 0.0 0.0 0.00 0.00 0.00 83 1017.4
20260508040005 63 359 0.0 1.0 0.00 0.00 0.00 83 1017.4
20260508035504 63 359 0.0 1.0 0.00 0.00 0.00 82 1017.4
20260508035025 64 359 0.0 1.0 0.00 0.00 0.00 81 1017.3
20260508034504 64 359 0.0 1.0 0.00 0.00 0.00 80 1017.2
20260508034025 64 359 0.0 1.0 0.00 0.00 0.00 79 1017.2
20260508033525 65 0 0.0 0.0 0.00 0.00 0.00 78 1017.2
20260508033004 66 0 0.0 0.0 0.00 0.00 0.00 77 1017.2
20260508032504 66 0 0.0 0.0 0.00 0.00 0.00 76 1017.1
20260508032004 67 0 0.0 0.0 0.00 0.00 0.00 75 1017.0
20260508031504 68 0 0.0 0.0 0.00 0.00 0.00 74 1017.0
20260508031004 68 0 0.0 0.0 0.00 0.00 0.00 72 1016.9
20260508030504 69 0 0.0 0.0 0.00 0.00 0.00 72 1016.9
20260508030005 70 0 0.0 0.0 0.00 0.00 0.00 71 1016.8
20260508025504 70 0 0.0 0.0 0.00 0.00 0.00 70 1016.7
20260508025004 71 0 0.0 0.0 0.00 0.00 0.00 69 1016.7
20260508024504 72 0 0.0 0.0 0.00 0.00 0.00 68 1016.7
20260508024004 72 303 0.0 2.0 0.00 0.00 0.00 67 1016.7
20260508023504 73 302 0.0 2.0 0.00 0.00 0.00 65 1016.7
20260508023004 74 270 0.0 3.0 0.00 0.00 0.00 64 1016.7
20260508022504 74 284 1.0 3.0 0.00 0.00 0.00 63 1016.7
20260508022004 75 285 1.0 3.0 0.00 0.00 0.00 59 1016.6
20260508021504 75 277 1.0 3.0 0.00 0.00 0.00 60 1016.6
20260508021004 75 279 0.0 3.0 0.00 0.00 0.00 59 1016.6
20260508020504 76 283 0.0 1.0 0.00 0.00 0.00 59 1016.5
20260508020004 76 275 0.0 3.0 0.00 0.00 0.00 58 1016.6
20260508015504 77 309 1.0 3.0 0.00 0.00 0.00 57 1016.5
20260508015004 78 306 1.0 3.0 0.00 0.00 0.00 57 1016.5
20260508014504 78 301 1.0 5.0 0.00 0.00 0.00 54 1016.5
20260508014004 78 313 1.0 5.0 0.00 0.00 0.00 53 1016.5
20260508013504 78 291 1.0 4.0 0.00 0.00 0.00 54 1016.6
20260508013005 78 280 1.0 5.0 0.00 0.00 0.00 53 1016.5
20260508012504 78 291 1.0 5.0 0.00 0.00 0.00 53 1016.6
20260508012004 78 287 1.0 4.0 0.00 0.00 0.00 51 1016.6
20260508011504 78 283 2.0 4.0 0.00 0.00 0.00 51 1016.5
20260508011004 79 267 1.0 3.0 0.00 0.00 0.00 50 1016.6
20260508010504 79 286 1.0 4.0 0.00 0.00 0.00 52 1016.6
20260508010004 79 310 2.0 4.0 0.00 0.00 0.00 51 1016.6
20260508005504 79 298 1.0 4.0 0.00 0.00 0.00 52 1016.7
20260508005004 79 279 1.0 4.0 0.00 0.00 0.00 49 1016.7
20260508004504 79 270 1.0 6.0 0.00 0.00 0.00 46 1016.7
20260508004025 80 265 1.0 6.0 0.00 0.00 0.00 52 1016.7
20260508003504 80 290 1.0 4.0 0.00 0.00 0.00 49 1016.8
20260508003005 80 290 1.0 4.0 0.00 0.00 0.00 52 1016.8
20260508002504 79 180 1.0 3.0 0.00 0.00 0.00 51 1016.8
20260508002004 79 293 1.0 4.0 0.00 0.00 0.00 53 1016.9
20260508001525 79 297 1.0 5.0 0.00 0.00 0.00 57 1016.8
20260508001004 79 301 2.0 5.0 0.00 0.00 0.00 53 1016.8
20260508000504 78 301 2.0 6.0 0.00 0.00 0.00 54 1016.8
20260508000004 78 292 2.0 6.0 0.00 0.00 0.00 54 1016.8
20260507235504 78 286 2.0 6.0 0.00 0.00 0.00 48 1016.8
20260507235025 78 295 2.0 4.0 0.00 0.00 0.00 53 1016.9
20260507234525 78 297 2.0 5.0 0.00 0.00 0.00 58 1016.9